Weather History for KERI - October, 2013

Change the Weather History Date:

Wednesday, October 2, 2013

  Actual Average Record
Temperature  
Mean Temperature 63 °F 58 °F  
Max Temperature 72 °F 66 °F 87 °F (1927)
Min Temperature 54 °F 50 °F 35 °F (1899)
Degree Days  
Heating Degree Days 2 8  
Month to date heating degree days 2 16  
Since 1 July heating degree days 134 140  
Cooling Degree Days 0 1  
Month to date cooling degree days 2 2  
Year to date cooling degree days 688 631  
Growing Degree Days 14 (Base 50)    
Moisture  
Dew Point 59 °F    
Average Humidity 73    
Maximum Humidity 93    
Minimum Humidity 53    
Precipitation  
Precipitation 0.00 in 0.14 in 0.90 in (2008)
Month to date precipitation 0.00 0.29  
Year to date precipitation 37.85 30.73  
Snow  
Snow 0.00 in 0.00 in - ()
Month to date snowfall 0.0 0.0  
Since 1 July snowfall 0.0 0.0  
Since 1 September snowfall 0.0 0.0  
Snow Depth 0.00 in    
Sea Level Pressure  
Sea Level Pressure 30.05 in    
Wind  
Wind Speed 7 mph (WSW)    
Max Wind Speed 17 mph    
Max Gust Speed 22 mph    
Visibility 8 miles    
Events      
T = Trace of Precipitation, MM = Missing Value Source: NWS Daily Summary

Daily Weather History Graph

Daily Weather History Graph

Search for Another Location

Airport or City:

Trip Planner

Search our weather history database for the weather conditions in past years. The results will help you decide how hot, cold, wet, or windy it might be!

Date:

Astronomy

Oct. 02, 2013 Rise Set
Actual Time 7:19 AM EDT 7:00 PM EDT
Civil Twilight 6:51 AM EDT 7:28 PM EDT
Nautical Twilight 6:18 AM EDT 8:00 PM EDT
Astronomical Twilight 5:45 AM EDT 8:33 PM EDT
Moon 4:48 AM EDT (10/2) 5:36 PM EDT (10/2)
Length of Visible Light 12h 36m
Length of Day
11h 41m
Waning Crescent, 6% of the Moon is Illuminated
Oct 2
Waning Crescent
Oct 4
New
Oct 11
First Quarter
Oct 18
Full
Oct 26
Last Quarter

Hourly Weather History & Observations

Time (EDT) Temp. Dew Point Humidity Pressure Visibility Wind Dir Wind Speed Gust Speed Precip Events Conditions
12:51 AM 64.9 °F 57.0 °F 75% 29.99 in 10.0 mi SSW 9.2 mph - N/A   Clear
1:51 AM 64.0 °F 57.0 °F 78% 30.00 in 10.0 mi SW 6.9 mph - N/A   Clear
2:51 AM 64.0 °F 57.0 °F 78% 29.99 in 10.0 mi SSW 8.1 mph - N/A   Clear
3:51 AM 63.0 °F 57.0 °F 81% 29.99 in 10.0 mi SSW 5.8 mph - N/A   Clear
4:51 AM 64.9 °F 57.9 °F 78% 29.99 in 10.0 mi SW 10.4 mph - N/A   Overcast
5:51 AM 66.0 °F 57.9 °F 75% 29.99 in 10.0 mi SSW 9.2 mph - N/A   Mostly Cloudy
6:51 AM 64.9 °F 57.9 °F 78% 29.99 in 10.0 mi SW 8.1 mph - N/A   Mostly Cloudy
7:51 AM 64.0 °F 57.9 °F 80% 30.02 in 9.0 mi SSW 8.1 mph - N/A   Clear
8:51 AM 66.0 °F 60.1 °F 81% 30.04 in 10.0 mi SSW 9.2 mph - N/A   Overcast
9:51 AM 68.0 °F 62.1 °F 81% 30.04 in 9.0 mi WSW 9.2 mph - N/A   Overcast
9:59 AM 68.0 °F 62.6 °F 83% 30.05 in 9.0 mi WSW 8.1 mph - N/A   Overcast
10:24 AM 68.0 °F 62.6 °F 83% 30.06 in 8.0 mi WSW 12.7 mph 18.4 mph N/A   Overcast
10:51 AM 69.1 °F 63.0 °F 81% 30.06 in 7.0 mi WSW 10.4 mph 21.9 mph N/A   Overcast
11:07 AM 69.8 °F 62.6 °F 78% 30.06 in 7.0 mi West 10.4 mph 17.3 mph N/A   Overcast
11:25 AM 69.8 °F 62.6 °F 78% 30.06 in 7.0 mi WSW 12.7 mph 20.7 mph N/A   Overcast
11:51 AM 69.1 °F 63.0 °F 81% 30.06 in 7.0 mi West 11.5 mph - N/A   Mostly Cloudy
12:14 PM 69.8 °F 62.6 °F 78% 30.07 in 6.0 mi WSW 13.8 mph 19.6 mph N/A   Haze
12:51 PM 70.0 °F 63.0 °F 78% 30.06 in 6.0 mi WSW 15.0 mph 19.6 mph N/A   Haze
1:13 PM 71.6 °F 62.6 °F 73% 30.06 in 8.0 mi West 12.7 mph - N/A   Scattered Clouds
1:44 PM 69.8 °F 64.4 °F 83% 30.07 in 5.0 mi West 11.5 mph 21.9 mph N/A   Haze
1:51 PM 70.0 °F 63.0 °F 78% 30.06 in 5.0 mi West 12.7 mph 18.4 mph N/A   Haze
1:58 PM 69.8 °F 62.6 °F 78% 30.06 in 6.0 mi West 16.1 mph 20.7 mph N/A   Haze
2:11 PM 69.8 °F 62.6 °F 78% 30.06 in 7.0 mi West 10.4 mph - N/A   Scattered Clouds
2:51 PM 70.0 °F 63.0 °F 78% 30.06 in 7.0 mi West 10.4 mph 16.1 mph N/A   Partly Cloudy
3:21 PM 69.8 °F 62.6 °F 78% 30.07 in 7.0 mi WNW 10.4 mph - N/A   Mostly Cloudy
3:32 PM 69.8 °F 62.6 °F 78% 30.07 in 8.0 mi West 9.2 mph 16.1 mph N/A   Scattered Clouds
3:51 PM 70.0 °F 60.1 °F 71% 30.06 in 9.0 mi West 11.5 mph 17.3 mph N/A   Partly Cloudy
4:51 PM 71.1 °F 60.1 °F 68% 30.05 in 10.0 mi WSW 8.1 mph - N/A   Clear
5:51 PM 71.1 °F 53.1 °F 53% 30.05 in 10.0 mi WSW 3.5 mph - N/A   Clear
6:51 PM 66.9 °F 54.0 °F 63% 30.06 in 10.0 mi SW 3.5 mph - N/A   Clear
7:51 PM 63.0 °F 55.0 °F 75% 30.07 in 10.0 mi South 3.5 mph - N/A   Clear
8:51 PM 60.1 °F 55.0 °F 83% 30.08 in 10.0 mi Calm Calm - N/A   Clear
9:51 PM 57.9 °F 54.0 °F 87% 30.08 in 8.0 mi Calm Calm - N/A   Clear
10:51 PM 57.0 °F 54.0 °F 89% 30.10 in 7.0 mi South 3.5 mph - N/A   Clear
11:51 PM 55.9 °F 53.1 °F 90% 30.11 in 6.0 mi Calm Calm - N/A   Clear